Flag for Germany Weather past 2 weeks in Leimen, Baden-Württemberg, Germany

Now
59 °F

Passing clouds.


Feels Like: 59 °F
Forecast: 39 / 62 °F
Wind: 5 mph from North

Location: Baden Wurttemberg - Neuostheim

Current Time: Sep 23, 2014 at 4:41:12 PM

Latest Report: Sep 23, 2014 at 3:50 PM


Visibility: N/A

Pressure: 30.12 "Hg

Humidity: 55%

Dew point: 43 °F

Location of LeimenLocation

Historic Weather in Leimen — Graph

°F

Leimen temperature yesterday

Maximum temperature yesterday: 59 °F (at 12:50 PM)
Minimum temperature yesterday: 48 °F (at 6:50 AM)
Average temperature yesterday: 54 °F

Past Weeks' High & Low Weather Summary

 TemperatureHumidityPressure
High79 °F (Sep 17, 3:20 PM)100% (Sep 15, 4:20 AM)30.21 "Hg (Sep 15, 4:20 AM)
Low41 °F (Sep 23, 6:20 AM)39% (Sep 17, 4:20 PM)29.86 "Hg (Sep 17, 3:20 PM)
Average64 °F75%30.02 "Hg
* Reported Sep 8 3:20 PM — Sep 23 3:50 PM, Leimen, Weather by CustomWeather, © 2014

Note: Actual official high and low records may vary slightly from our data, if they occured in-between our weather recording intervals... More about our weather records

Advertising

Leimen weather history for previous 24 hours

 ConditionsComfort  
Time TempWeatherWind HumidityBarometerVisibility
3:50 PM
Sep 23
59 °FPassing clouds.5 mph55%30.12 "HgN/A
3:20 PM59 °FScattered clouds.5 mph51%30.15 "HgN/A
2:50 PM59 °FPassing clouds.3 mph51%30.15 "HgN/A
2:20 PM61 °FScattered clouds.2 mph52%30.15 "HgN/A
1:50 PM57 °FPassing clouds.5 mph59%30.18 "HgN/A
1:20 PM57 °FPassing clouds.3 mph67%30.18 "HgN/A
12:50 PM55 °FScattered clouds.5 mph77%30.21 "Hg6 mi
12:20 PM54 °FScattered clouds.5 mph94%30.21 "HgN/A
11:50 AM52 °FScattered clouds.2 mph94%30.21 "HgN/A
11:20 AM52 °FFog.3 mph94%30.21 "Hg2 mi
10:50 AM48 °FFog.2 mph100%30.21 "Hg1 mi
10:20 AM46 °FFog.1 mph100%30.21 "Hg1 mi
9:50 AM45 °FFog.2 mph100%30.21 "Hg1 mi
9:20 AM45 °FFog.3 mph100%30.21 "Hg1 mi
8:50 AM43 °FFog.1 mph100%30.21 "Hg1 mi
8:20 AM43 °FFog.5 mph100%30.21 "Hg1 mi
7:50 AM43 °FFog.3 mph100%30.21 "Hg1 mi
7:20 AM43 °FQuite cool.3 mph100%30.21 "Hg1 mi
6:50 AM43 °FFog.3 mph100%30.18 "Hg1 mi
6:20 AM41 °FFog.1 mph100%30.18 "Hg4 mi
5:50 AM43 °FClear.1 mph93%30.18 "Hg4 mi
9:20 PM
Sep 22
48 °FPassing clouds.3 mph87%30.15 "HgN/A
8:50 PM50 °FClear.2 mph82%30.15 "Hg10 mi
8:20 PM52 °FSunny.2 mph72%30.15 "Hg10 mi
7:50 PM54 °FPassing clouds.6 mph67%30.15 "HgN/A
7:20 PM54 °FPassing clouds.7 mph67%30.15 "HgN/A
6:50 PM55 °FPassing clouds.8 mph63%30.12 "HgN/A
6:20 PM55 °FPassing clouds.7 mph67%30.12 "HgN/A
5:50 PM54 °FPassing clouds.7 mph77%30.09 "HgN/A
5:20 PM55 °FBroken clouds.7 mph77%30.09 "HgN/A
4:50 PM52 °FScattered clouds.8 mph82%30.09 "HgN/A
4:20 PM52 °FBroken clouds.8 mph88%30.09 "HgN/A
Weather by CustomWeather, © 2014

See weather overviewHow to use our weather pages